Home   Weather   New Orleans   Past weeks

Flag for USA Past Weather in New Orleans, Louisiana, USA — Yesterday and Last 2 Weeks

Now
71 °F

Clear.


Feels Like: 77 °F
Forecast: 59 / 81 °F
Wind: 7 mph from Southwest

Location: Lakefront Airport

Current Time: Apr 25, 2017 at 12:07:11 am

Latest Report: Apr 24, 2017 at 10:53 pm


Visibility: 10 mi

Pressure: 29.79 "Hg

Humidity: 55%

Dew Point: 54 °F

Location of New OrleansLocation

Past Weather in New Orleans — Graph

°F

New Orleans Temperature Yesterday

Maximum temperature yesterday: 76 °F (at 4:53 pm)
Minimum temperature yesterday: 62 °F (at 1:53 am)
Average temperature yesterday: 69 °F

High & Low Weather Summary for the Past Weeks

 TemperatureHumidityPressure
High85 °F (Apr 22, 3:53 pm)97% (Apr 18, 6:53 am)30.22 "Hg (Apr 18, 6:53 am)
Low62 °F (Apr 23, 9:53 pm)38% (Apr 12, 4:53 pm)29.77 "Hg (Apr 24, 6:53 pm)
Average74 °F74%30.06 "Hg
* Reported Apr 9 10:53 pm — Apr 24 10:53 pm, New Orleans, Weather by CustomWeather, © 2017

Note: Actual official high and low records may vary slightly from our data, if they occured in-between our weather recording intervals... More about our weather records

Advertising

New Orleans Weather History for the Previous 24 Hours

Scroll right to see more
 ConditionsComfort  
Time TempWeatherWind HumidityBarometerVisibility
10:53 pm
Mon, Apr 24
71 °FClear.7 mph55%29.79 "Hg10 mi
9:53 pm72 °FClear.7 mph55%29.78 "Hg10 mi
8:53 pm72 °FClear.7 mph59%29.78 "Hg10 mi
7:53 pm74 °FClear.9 mph53%29.78 "Hg10 mi
6:53 pm75 °FSunny.12 mph52%29.77 "Hg10 mi
5:53 pm76 °FSunny.13 mph50%29.78 "Hg10 mi
4:53 pm76 °FSunny.14 mph50%29.79 "Hg10 mi
3:53 pm75 °FSunny.13 mph50%29.80 "Hg10 mi
2:53 pm74 °FSunny.15 mph52%29.82 "Hg10 mi
1:53 pm74 °FSunny.15 mph50%29.85 "Hg10 mi
12:53 pm73 °FSunny.18 mph51%29.88 "Hg10 mi
11:53 am71 °FSunny.22 mph55%29.90 "Hg10 mi
10:53 am70 °FSunny.21 mph57%29.92 "Hg10 mi
9:53 am68 °FSunny.22 mph61%29.93 "Hg10 mi
8:53 am67 °FPassing clouds.17 mph76%29.92 "Hg10 mi
7:53 am65 °FSunny.14 mph73%29.90 "Hg10 mi
6:53 am64 °FSunny.13 mph61%29.88 "Hg10 mi
5:53 am63 °FClear.14 mph63%29.87 "Hg10 mi
4:53 am63 °FClear.15 mph65%29.85 "Hg10 mi
3:53 am63 °FClear.14 mph63%29.85 "Hg10 mi
2:53 am63 °FClear.12 mph65%29.87 "Hg10 mi
1:53 am62 °FClear.15 mph70%29.90 "Hg10 mi
12:53 am63 °FPassing clouds.15 mph68%29.93 "Hg10 mi
Weather by CustomWeather, © 2017

See weather overviewHow to use our weather pages